owner,sensor,date,latitude,longitude,vertical_datum,wind_speed,wind_to_direction,wind_speed_of_gust,qcFlag 
TCOON,ioos:station:TCOON:518:1,2019-03-01T00:00:00Z,29.5150,-94.5133,0.0,5.3,5.0,6.0,'11111222,11111222,11111222' 
TCOON,ioos:station:TCOON:518:1,2019-03-01T00:06:00Z,29.5150,-94.5133,0.0,4.0,353.0,5.2,'11111222,11111222,11111222' 
TCOON,ioos:station:TCOON:518:1,2019-03-01T00:12:00Z,29.5150,-94.5133,0.0,4.6,354.0,5.1,'11111222,11111222,11111222' 
TCOON,ioos:station:TCOON:518:1,2019-03-01T00:18:00Z,29.5150,-94.5133,0.0,4.1,352.0,5.2,'11111222,11111222,11111222' 
TCOON,ioos:station:TCOON:518:1,2019-03-01T00:24:00Z,29.5150,-94.5133,0.0,3.4,7.0,4.4,'11111222,11111222,11111222' 
TCOON,ioos:station:TCOON:518:1,2019-03-01T00:30:00Z,29.5150,-94.5133,0.0,4.5,355.0,5.0,'11111222,11111222,11111222' 
TCOON,ioos:station:TCOON:518:1,2019-03-01T00:36:00Z,29.5150,-94.5133,0.0,4.6,2.0,5.5,'11111222,11111222,11111222' 
TCOON,ioos:station:TCOON:518:1,2019-03-01T00:42:00Z,29.5150,-94.5133,0.0,4.9,350.0,5.5,'11111222,11111222,11111222' 
TCOON,ioos:station:TCOON:518:1,2019-03-01T00:48:00Z,29.5150,-94.5133,0.0,4.8,351.0,5.9,'11111222,11111222,11111222' 
TCOON,ioos:station:TCOON:518:1,2019-03-01T00:54:00Z,29.5150,-94.5133,0.0,4.7,352.0,5.5,'11111222,11111222,11111222' 
TCOON,ioos:station:TCOON:518:1,2019-03-01T01:00:00Z,29.5150,-94.5133,0.0,5.8,348.0,6.4,'11111222,11111222,11111222' 
TCOON,ioos:station:TCOON:518:1,2019-03-01T01:06:00Z,29.5150,-94.5133,0.0,7.0,348.0,7.7,'11111222,11111222,11111222' 
TCOON,ioos:station:TCOON:518:1,2019-03-01T01:12:00Z,29.5150,-94.5133,0.0,7.0,352.0,7.6,'11111222,11111222,11111222' 
TCOON,ioos:station:TCOON:518:1,2019-03-01T01:18:00Z,29.5150,-94.5133,0.0,7.1,6.0,8.2,'11111222,11111222,11111222' 
TCOON,ioos:station:TCOON:518:1,2019-03-01T01:24:00Z,29.5150,-94.5133,0.0,6.3,1.0,7.3,'11111222,11111222,11111222' 
TCOON,ioos:station:TCOON:518:1,2019-03-01T01:30:00Z,29.5150,-94.5133,0.0,6.9,4.0,7.8,'11111222,11111222,11111222' 
TCOON,ioos:station:TCOON:518:1,2019-03-01T01:36:00Z,29.5150,-94.5133,0.0,6.8,357.0,7.5,'11111222,11111222,11111222' 
TCOON,ioos:station:TCOON:518:1,2019-03-01T01:42:00Z,29.5150,-94.5133,0.0,6.9,350.0,7.9,'11111222,11111222,11111222' 
TCOON,ioos:station:TCOON:518:1,2019-03-01T01:48:00Z,29.5150,-94.5133,0.0,6.7,353.0,7.8,'11111222,11111222,11111222' 
TCOON,ioos:station:TCOON:518:1,2019-03-01T01:54:00Z,29.5150,-94.5133,0.0,6.6,3.0,8.0,'11111222,11111222,11111222' 
TCOON,ioos:station:TCOON:518:1,2019-03-01T02:00:00Z,29.5150,-94.5133,0.0,6.3,4.0,7.5,'11111222,11111222,11111222' 
TCOON,ioos:station:TCOON:518:1,2019-03-01T02:06:00Z,29.5150,-94.5133,0.0,7.0,359.0,7.7,'11111222,11111222,11111222' 
TCOON,ioos:station:TCOON:518:1,2019-03-01T02:12:00Z,29.5150,-94.5133,0.0,5.4,9.0,7.4,'11111222,11111222,11111222' 
TCOON,ioos:station:TCOON:518:1,2019-03-01T02:18:00Z,29.5150,-94.5133,0.0,4.5,19.0,5.9,'11111222,11111222,11111222' 
TCOON,ioos:station:TCOON:518:1,2019-03-01T02:24:00Z,29.5150,-94.5133,0.0,5.1,15.0,6.2,'11111222,11111222,11111222' 
TCOON,ioos:station:TCOON:518:1,2019-03-01T02:30:00Z,29.5150,-94.5133,0.0,5.2,21.0,6.2,'11111222,11111222,11111222' 
TCOON,ioos:station:TCOON:518:1,2019-03-01T02:36:00Z,29.5150,-94.5133,0.0,5.2,21.0,6.2,'1111122,1111122,1111122' 
TCOON,ioos:station:TCOON:518:1,2019-03-01T02:42:00Z,29.5150,-94.5133,0.0,6.0,4.0,6.8,'11111222,11111222,11111222' 
TCOON,ioos:station:TCOON:518:1,2019-03-01T02:48:00Z,29.5150,-94.5133,0.0,6.0,5.0,6.5,'11111222,11111222,11111222' 
TCOON,ioos:station:TCOON:518:1,2019-03-01T02:54:00Z,29.5150,-94.5133,0.0,6.8,6.0,7.6,'11111222,11111222,11111222' 
TCOON,ioos:station:TCOON:518:1,2019-03-01T03:00:00Z,29.5150,-94.5133,0.0,6.7,7.0,7.9,'11111222,11111222,11111222' 
TCOON,ioos:station:TCOON:518:1,2019-03-01T03:06:00Z,29.5150,-94.5133,0.0,6.5,7.0,8.0,'11111222,11111222,11111222' 
TCOON,ioos:station:TCOON:518:1,2019-03-01T03:12:00Z,29.5150,-94.5133,0.0,7.2,4.0,8.0,'11111222,11111222,11111222' 
TCOON,ioos:station:TCOON:518:1,2019-03-01T03:18:00Z,29.5150,-94.5133,0.0,6.6,4.0,7.5,'11111222,11111222,11111222' 
TCOON,ioos:station:TCOON:518:1,2019-03-01T03:24:00Z,29.5150,-94.5133,0.0,6.6,4.0,7.5,'1111122,1111122,1111122' 
TCOON,ioos:station:TCOON:518:1,2019-03-01T03:30:00Z,29.5150,-94.5133,0.0,6.2,5.0,7.1,'11111222,11111222,11111222' 
TCOON,ioos:station:TCOON:518:1,2019-03-01T03:36:00Z,29.5150,-94.5133,0.0,6.2,15.0,7.0,'11111222,11111222,11111222' 
TCOON,ioos:station:TCOON:518:1,2019-03-01T03:42:00Z,29.5150,-94.5133,0.0,6.3,23.0,7.4,'11111222,11111222,11111222' 
TCOON,ioos:station:TCOON:518:1,2019-03-01T03:48:00Z,29.5150,-94.5133,0.0,5.9,18.0,6.8,'11111222,11111222,11111222' 
TCOON,ioos:station:TCOON:518:1,2019-03-01T03:54:00Z,29.5150,-94.5133,0.0,4.2,10.0,6.2,'11111222,11111222,11111222' 
TCOON,ioos:station:TCOON:518:1,2019-03-01T04:00:00Z,29.5150,-94.5133,0.0,5.9,2.0,6.4,'11111222,11111222,11111222' 
TCOON,ioos:station:TCOON:518:1,2019-03-01T04:06:00Z,29.5150,-94.5133,0.0,5.8,8.0,7.1,'11111222,11111222,11111222' 
TCOON,ioos:station:TCOON:518:1,2019-03-01T04:12:00Z,29.5150,-94.5133,0.0,6.5,3.0,7.4,'11111222,11111222,11111222' 
TCOON,ioos:station:TCOON:518:1,2019-03-01T04:18:00Z,29.5150,-94.5133,0.0,6.0,3.0,7.8,'11111222,11111222,11111222' 
TCOON,ioos:station:TCOON:518:1,2019-03-01T04:24:00Z,29.5150,-94.5133,0.0,6.0,3.0,7.8,'1111122,1111122,1111122' 
TCOON,ioos:station:TCOON:518:1,2019-03-01T04:30:00Z,29.5150,-94.5133,0.0,7.1,355.0,8.0,'11111222,11111222,11111222' 
TCOON,ioos:station:TCOON:518:1,2019-03-01T04:36:00Z,29.5150,-94.5133,0.0,7.6,1.0,8.4,'11111222,11111222,11111222' 
TCOON,ioos:station:TCOON:518:1,2019-03-01T04:42:00Z,29.5150,-94.5133,0.0,7.4,4.0,8.1,'11111222,11111222,11111222' 
TCOON,ioos:station:TCOON:518:1,2019-03-01T04:48:00Z,29.5150,-94.5133,0.0,6.6,2.0,8.6,'11111222,11111222,11111222' 
TCOON,ioos:station:TCOON:518:1,2019-03-01T04:54:00Z,29.5150,-94.5133,0.0,6.9,350.0,7.9,'11111222,11111222,11111222' 
TCOON,ioos:station:TCOON:518:1,2019-03-01T05:00:00Z,29.5150,-94.5133,0.0,7.5,346.0,8.3,'11111222,11111222,11111222' 
TCOON,ioos:station:TCOON:518:1,2019-03-01T05:06:00Z,29.5150,-94.5133,0.0,8.1,355.0,9.0,'11111222,11111222,11111222' 
TCOON,ioos:station:TCOON:518:1,2019-03-01T05:12:00Z,29.5150,-94.5133,0.0,7.2,348.0,8.8,'11111222,11111222,11111222' 
TCOON,ioos:station:TCOON:518:1,2019-03-01T05:18:00Z,29.5150,-94.5133,0.0,8.3,350.0,9.3,'11111222,11111222,11111222' 
TCOON,ioos:station:TCOON:518:1,2019-03-01T05:24:00Z,29.5150,-94.5133,0.0,8.3,350.0,9.3,'1111122,1111122,1111122' 
TCOON,ioos:station:TCOON:518:1,2019-03-01T05:30:00Z,29.5150,-94.5133,0.0,7.9,3.0,9.1,'11111222,11111222,11111222' 
TCOON,ioos:station:TCOON:518:1,2019-03-01T05:36:00Z,29.5150,-94.5133,0.0,6.8,356.0,8.2,'11111222,11111222,11111222' 
TCOON,ioos:station:TCOON:518:1,2019-03-01T05:42:00Z,29.5150,-94.5133,0.0,7.4,352.0,8.3,'11111222,11111222,11111222' 
TCOON,ioos:station:TCOON:518:1,2019-03-01T05:48:00Z,29.5150,-94.5133,0.0,6.9,5.0,7.7,'11111222,11111222,11111222' 
TCOON,ioos:station:TCOON:518:1,2019-03-01T05:54:00Z,29.5150,-94.5133,0.0,7.6,1.0,8.7,'11111222,11111222,11111222' 
TCOON,ioos:station:TCOON:518:1,2019-03-01T06:00:00Z,29.5150,-94.5133,0.0,5.7,5.0,7.9,'11111222,11111222,11111222' 
TCOON,ioos:station:TCOON:518:1,2019-03-01T06:06:00Z,29.5150,-94.5133,0.0,5.2,4.0,7.0,'11111222,11111222,11111222' 
TCOON,ioos:station:TCOON:518:1,2019-03-01T06:12:00Z,29.5150,-94.5133,0.0,6.5,13.0,7.7,'11111222,11111222,11111222' 
TCOON,ioos:station:TCOON:518:1,2019-03-01T06:18:00Z,29.5150,-94.5133,0.0,6.2,10.0,8.1,'11111222,11111222,11111222' 
TCOON,ioos:station:TCOON:518:1,2019-03-01T06:24:00Z,29.5150,-94.5133,0.0,6.2,10.0,8.1,'1111122,1111122,1111122' 
TCOON,ioos:station:TCOON:518:1,2019-03-01T06:30:00Z,29.5150,-94.5133,0.0,5.5,11.0,7.3,'11111222,11111222,11111222' 
TCOON,ioos:station:TCOON:518:1,2019-03-01T06:36:00Z,29.5150,-94.5133,0.0,6.0,7.0,7.0,'11111222,11111222,11111222' 
TCOON,ioos:station:TCOON:518:1,2019-03-01T06:42:00Z,29.5150,-94.5133,0.0,6.1,14.0,7.1,'11111222,11111222,11111222' 
TCOON,ioos:station:TCOON:518:1,2019-03-01T06:48:00Z,29.5150,-94.5133,0.0,5.7,8.0,6.7,'11111222,11111222,11111222' 
TCOON,ioos:station:TCOON:518:1,2019-03-01T06:54:00Z,29.5150,-94.5133,0.0,7.0,10.0,7.6,'11111222,11111222,11111222' 
TCOON,ioos:station:TCOON:518:1,2019-03-01T07:00:00Z,29.5150,-94.5133,0.0,6.3,10.0,7.2,'11111222,11111222,11111222' 
TCOON,ioos:station:TCOON:518:1,2019-03-01T07:06:00Z,29.5150,-94.5133,0.0,6.6,13.0,7.6,'11111222,11111222,11111222' 
TCOON,ioos:station:TCOON:518:1,2019-03-01T07:12:00Z,29.5150,-94.5133,0.0,6.6,17.0,7.7,'11111222,11111222,11111222' 
TCOON,ioos:station:TCOON:518:1,2019-03-01T07:18:00Z,29.5150,-94.5133,0.0,6.2,13.0,7.1,'11111222,11111222,11111222' 
TCOON,ioos:station:TCOON:518:1,2019-03-01T07:24:00Z,29.5150,-94.5133,0.0,6.2,13.0,7.1,'1111122,1111122,1111122' 
TCOON,ioos:station:TCOON:518:1,2019-03-01T07:30:00Z,29.5150,-94.5133,0.0,5.2,20.0,6.8,'11111222,11111222,11111222' 
TCOON,ioos:station:TCOON:518:1,2019-03-01T07:36:00Z,29.5150,-94.5133,0.0,4.7,25.0,6.1,'11111222,11111222,11111222' 
TCOON,ioos:station:TCOON:518:1,2019-03-01T07:42:00Z,29.5150,-94.5133,0.0,3.6,38.0,5.1,'11111222,11111222,11111222' 
TCOON,ioos:station:TCOON:518:1,2019-03-01T07:48:00Z,29.5150,-94.5133,0.0,4.1,29.0,5.1,'11111222,11111222,11111222' 
TCOON,ioos:station:TCOON:518:1,2019-03-01T07:54:00Z,29.5150,-94.5133,0.0,4.3,14.0,5.3,'11111222,11111222,11111222' 
TCOON,ioos:station:TCOON:518:1,2019-03-01T08:00:00Z,29.5150,-94.5133,0.0,3.5,16.0,5.3,'11111222,11111222,11111222' 
TCOON,ioos:station:TCOON:518:1,2019-03-01T08:06:00Z,29.5150,-94.5133,0.0,3.3,27.0,4.1,'11111222,11111222,11111222' 
TCOON,ioos:station:TCOON:518:1,2019-03-01T08:12:00Z,29.5150,-94.5133,0.0,2.8,25.0,3.8,'11111222,11111222,11111222' 
TCOON,ioos:station:TCOON:518:1,2019-03-01T08:18:00Z,29.5150,-94.5133,0.0,2.8,32.0,3.7,'11111222,11111222,11111222' 
TCOON,ioos:station:TCOON:518:1,2019-03-01T08:24:00Z,29.5150,-94.5133,0.0,2.8,32.0,3.7,'1111122,1111122,1111122' 
TCOON,ioos:station:TCOON:518:1,2019-03-01T08:30:00Z,29.5150,-94.5133,0.0,3.3,45.0,4.1,'11111222,11111222,11111222' 
TCOON,ioos:station:TCOON:518:1,2019-03-01T08:36:00Z,29.5150,-94.5133,0.0,3.8,38.0,4.6,'11111222,11111222,11111222' 
TCOON,ioos:station:TCOON:518:1,2019-03-01T08:42:00Z,29.5150,-94.5133,0.0,2.9,40.0,3.9,'11111222,11111222,11111222' 
TCOON,ioos:station:TCOON:518:1,2019-03-01T08:48:00Z,29.5150,-94.5133,0.0,4.2,13.0,4.7,'11111222,11111222,11111222' 
TCOON,ioos:station:TCOON:518:1,2019-03-01T08:54:00Z,29.5150,-94.5133,0.0,5.1,11.0,5.7,'11111222,11111222,11111222' 
TCOON,ioos:station:TCOON:518:1,2019-03-01T09:00:00Z,29.5150,-94.5133,0.0,5.5,4.0,6.0,'11111222,11111222,11111222' 
TCOON,ioos:station:TCOON:518:1,2019-03-01T09:06:00Z,29.5150,-94.5133,0.0,5.7,12.0,6.5,'11111222,11111222,11111222' 
TCOON,ioos:station:TCOON:518:1,2019-03-01T09:12:00Z,29.5150,-94.5133,0.0,6.2,8.0,7.1,'11111222,11111222,11111222' 
TCOON,ioos:station:TCOON:518:1,2019-03-01T09:18:00Z,29.5150,-94.5133,0.0,5.5,11.0,6.8,'11111222,11111222,11111222' 
TCOON,ioos:station:TCOON:518:1,2019-03-01T09:24:00Z,29.5150,-94.5133,0.0,5.5,11.0,6.8,'1111122,1111122,1111122' 
TCOON,ioos:station:TCOON:518:1,2019-03-01T09:30:00Z,29.5150,-94.5133,0.0,5.5,3.0,6.1,'11111222,11111222,11111222' 
TCOON,ioos:station:TCOON:518:1,2019-03-01T09:36:00Z,29.5150,-94.5133,0.0,5.2,9.0,6.0,'11111222,11111222,11111222' 
TCOON,ioos:station:TCOON:518:1,2019-03-01T09:42:00Z,29.5150,-94.5133,0.0,5.1,1.0,6.5,'11111222,11111222,11111222' 
TCOON,ioos:station:TCOON:518:1,2019-03-01T09:48:00Z,29.5150,-94.5133,0.0,5.2,359.0,6.0,'11111222,11111222,11111222' 
TCOON,ioos:station:TCOON:518:1,2019-03-01T09:54:00Z,29.5150,-94.5133,0.0,5.2,3.0,6.2,'11111222,11111222,11111222' 
TCOON,ioos:station:TCOON:518:1,2019-03-01T10:00:00Z,29.5150,-94.5133,0.0,4.0,5.0,5.4,'11111222,11111222,11111222' 
TCOON,ioos:station:TCOON:518:1,2019-03-01T10:06:00Z,29.5150,-94.5133,0.0,4.1,11.0,4.9,'11111222,11111222,11111222' 
TCOON,ioos:station:TCOON:518:1,2019-03-01T10:12:00Z,29.5150,-94.5133,0.0,3.7,5.0,4.5,'11111222,11111222,11111222' 
TCOON,ioos:station:TCOON:518:1,2019-03-01T10:18:00Z,29.5150,-94.5133,0.0,4.7,9.0,5.1,'11111222,11111222,11111222' 
TCOON,ioos:station:TCOON:518:1,2019-03-01T10:24:00Z,29.5150,-94.5133,0.0,4.7,9.0,5.1,'1111122,1111122,1111122' 
TCOON,ioos:station:TCOON:518:1,2019-03-01T10:30:00Z,29.5150,-94.5133,0.0,4.4,15.0,5.1,'11111222,11111222,11111222' 
TCOON,ioos:station:TCOON:518:1,2019-03-01T10:36:00Z,29.5150,-94.5133,0.0,4.6,5.0,5.3,'11111222,11111222,11111222' 
TCOON,ioos:station:TCOON:518:1,2019-03-01T10:42:00Z,29.5150,-94.5133,0.0,4.8,4.0,5.6,'11111222,11111222,11111222' 
TCOON,ioos:station:TCOON:518:1,2019-03-01T10:48:00Z,29.5150,-94.5133,0.0,5.3,9.0,6.2,'11111222,11111222,11111222' 
TCOON,ioos:station:TCOON:518:1,2019-03-01T10:54:00Z,29.5150,-94.5133,0.0,4.4,10.0,5.8,'11111222,11111222,11111222' 
TCOON,ioos:station:TCOON:518:1,2019-03-01T11:00:00Z,29.5150,-94.5133,0.0,4.2,9.0,5.0,'11111222,11111222,11111222' 
TCOON,ioos:station:TCOON:518:1,2019-03-01T11:06:00Z,29.5150,-94.5133,0.0,4.8,11.0,5.7,'11111222,11111222,11111222' 
TCOON,ioos:station:TCOON:518:1,2019-03-01T11:12:00Z,29.5150,-94.5133,0.0,3.9,12.0,5.0,'11111222,11111222,11111222' 
TCOON,ioos:station:TCOON:518:1,2019-03-01T11:18:00Z,29.5150,-94.5133,0.0,4.3,7.0,4.8,'11111222,11111222,11111222' 
TCOON,ioos:station:TCOON:518:1,2019-03-01T11:24:00Z,29.5150,-94.5133,0.0,4.3,7.0,4.8,'1111122,1111122,1111122' 
TCOON,ioos:station:TCOON:518:1,2019-03-01T11:30:00Z,29.5150,-94.5133,0.0,3.9,6.0,4.7,'11111222,11111222,11111222' 
TCOON,ioos:station:TCOON:518:1,2019-03-01T11:36:00Z,29.5150,-94.5133,0.0,3.5,3.0,5.0,'11111222,11111222,11111222' 
TCOON,ioos:station:TCOON:518:1,2019-03-01T11:42:00Z,29.5150,-94.5133,0.0,4.5,353.0,5.0,'11111222,11111222,11111222' 
TCOON,ioos:station:TCOON:518:1,2019-03-01T11:48:00Z,29.5150,-94.5133,0.0,4.3,351.0,5.1,'11111222,11111222,11111222' 
TCOON,ioos:station:TCOON:518:1,2019-03-01T11:54:00Z,29.5150,-94.5133,0.0,4.6,6.0,5.4,'11111222,11111222,11111222' 
TCOON,ioos:station:TCOON:518:1,2019-03-01T12:00:00Z,29.5150,-94.5133,0.0,3.2,358.0,4.5,'11111222,11111222,11111222' 
TCOON,ioos:station:TCOON:518:1,2019-03-01T12:06:00Z,29.5150,-94.5133,0.0,3.4,11.0,4.1,'11111222,11111222,11111222' 
TCOON,ioos:station:TCOON:518:1,2019-03-01T12:12:00Z,29.5150,-94.5133,0.0,3.5,26.0,3.9,'11111222,11111222,11111222' 
TCOON,ioos:station:TCOON:518:1,2019-03-01T12:18:00Z,29.5150,-94.5133,0.0,4.4,36.0,5.1,'11111222,11111222,11111222' 
TCOON,ioos:station:TCOON:518:1,2019-03-01T12:24:00Z,29.5150,-94.5133,0.0,4.4,36.0,5.1,'1111122,1111122,1111122' 
TCOON,ioos:station:TCOON:518:1,2019-03-01T12:30:00Z,29.5150,-94.5133,0.0,4.8,49.0,5.4,'11111222,11111222,11111222' 
TCOON,ioos:station:TCOON:518:1,2019-03-01T12:36:00Z,29.5150,-94.5133,0.0,4.9,55.0,6.1,'11111222,11111222,11111222' 
TCOON,ioos:station:TCOON:518:1,2019-03-01T12:42:00Z,29.5150,-94.5133,0.0,4.7,57.0,5.4,'11111222,11111222,11111222' 
TCOON,ioos:station:TCOON:518:1,2019-03-01T12:48:00Z,29.5150,-94.5133,0.0,4.5,50.0,5.1,'11111222,11111222,11111222' 
TCOON,ioos:station:TCOON:518:1,2019-03-01T12:54:00Z,29.5150,-94.5133,0.0,3.8,69.0,4.9,'11111222,11111222,11111222' 
TCOON,ioos:station:TCOON:518:1,2019-03-01T13:00:00Z,29.5150,-94.5133,0.0,3.9,48.0,4.5,'11111222,11111222,11111222' 
TCOON,ioos:station:TCOON:518:1,2019-03-01T13:06:00Z,29.5150,-94.5133,0.0,4.7,27.0,5.2,'11111222,11111222,11111222' 
TCOON,ioos:station:TCOON:518:1,2019-03-01T13:12:00Z,29.5150,-94.5133,0.0,5.3,18.0,5.8,'11111222,11111222,11111222' 
TCOON,ioos:station:TCOON:518:1,2019-03-01T13:18:00Z,29.5150,-94.5133,0.0,5.0,24.0,6.2,'11111222,11111222,11111222' 
TCOON,ioos:station:TCOON:518:1,2019-03-01T13:24:00Z,29.5150,-94.5133,0.0,5.0,24.0,6.2,'1111122,1111122,1111122' 
TCOON,ioos:station:TCOON:518:1,2019-03-01T13:30:00Z,29.5150,-94.5133,0.0,3.9,23.0,4.6,'11111222,11111222,11111222' 
TCOON,ioos:station:TCOON:518:1,2019-03-01T13:36:00Z,29.5150,-94.5133,0.0,3.8,36.0,4.7,'11111222,11111222,11111222' 
TCOON,ioos:station:TCOON:518:1,2019-03-01T13:42:00Z,29.5150,-94.5133,0.0,3.8,56.0,4.6,'11111222,11111222,11111222' 
TCOON,ioos:station:TCOON:518:1,2019-03-01T13:48:00Z,29.5150,-94.5133,0.0,4.0,55.0,4.6,'11111222,11111222,11111222' 
TCOON,ioos:station:TCOON:518:1,2019-03-01T13:54:00Z,29.5150,-94.5133,0.0,3.9,40.0,4.7,'11111222,11111222,11111222' 
TCOON,ioos:station:TCOON:518:1,2019-03-01T14:00:00Z,29.5150,-94.5133,0.0,3.7,40.0,4.3,'11111222,11111222,11111222' 
TCOON,ioos:station:TCOON:518:1,2019-03-01T14:06:00Z,29.5150,-94.5133,0.0,3.4,42.0,4.5,'11111222,11111222,11111222' 
TCOON,ioos:station:TCOON:518:1,2019-03-01T14:12:00Z,29.5150,-94.5133,0.0,3.1,24.0,3.8,'11111222,11111222,11111222' 
TCOON,ioos:station:TCOON:518:1,2019-03-01T14:18:00Z,29.5150,-94.5133,0.0,3.0,19.0,4.1,'11111222,11111222,11111222' 
TCOON,ioos:station:TCOON:518:1,2019-03-01T14:24:00Z,29.5150,-94.5133,0.0,3.0,19.0,4.1,'1111122,1111122,1111122' 
TCOON,ioos:station:TCOON:518:1,2019-03-01T14:30:00Z,29.5150,-94.5133,0.0,3.1,34.0,3.5,'11111222,11111222,11111222' 
TCOON,ioos:station:TCOON:518:1,2019-03-01T14:36:00Z,29.5150,-94.5133,0.0,2.7,29.0,3.8,'11111222,11111222,11111222' 
TCOON,ioos:station:TCOON:518:1,2019-03-01T14:42:00Z,29.5150,-94.5133,0.0,2.9,24.0,3.7,'11111222,11111222,11111222' 
TCOON,ioos:station:TCOON:518:1,2019-03-01T14:48:00Z,29.5150,-94.5133,0.0,2.7,36.0,3.4,'11111222,11111222,11111222' 
TCOON,ioos:station:TCOON:518:1,2019-03-01T14:54:00Z,29.5150,-94.5133,0.0,3.2,32.0,3.7,'11111222,11111222,11111222' 
TCOON,ioos:station:TCOON:518:1,2019-03-01T15:00:00Z,29.5150,-94.5133,0.0,2.7,46.0,3.4,'11111222,11111222,11111222' 
TCOON,ioos:station:TCOON:518:1,2019-03-01T15:06:00Z,29.5150,-94.5133,0.0,2.5,74.0,3.3,'11111222,11111222,11111222' 
TCOON,ioos:station:TCOON:518:1,2019-03-01T15:12:00Z,29.5150,-94.5133,0.0,1.9,79.0,2.9,'11111222,11111222,11111222' 
TCOON,ioos:station:TCOON:518:1,2019-03-01T15:18:00Z,29.5150,-94.5133,0.0,1.4,93.0,2.8,'11111222,11111222,11111222' 
TCOON,ioos:station:TCOON:518:1,2019-03-01T15:24:00Z,29.5150,-94.5133,0.0,1.8,95.0,2.7,'11111222,11111222,11111222' 
TCOON,ioos:station:TCOON:518:1,2019-03-01T15:30:00Z,29.5150,-94.5133,0.0,1.5,97.0,2.3,'11111222,11111222,11111222' 
TCOON,ioos:station:TCOON:518:1,2019-03-01T15:36:00Z,29.5150,-94.5133,0.0,1.5,97.0,2.3,'1111122,1111122,1111122' 
TCOON,ioos:station:TCOON:518:1,2019-03-01T15:42:00Z,29.5150,-94.5133,0.0,1.9,89.0,2.3,'11111222,11111222,11111222' 
TCOON,ioos:station:TCOON:518:1,2019-03-01T15:48:00Z,29.5150,-94.5133,0.0,1.6,82.0,2.3,'11111222,11111222,11111222' 
TCOON,ioos:station:TCOON:518:1,2019-03-01T15:54:00Z,29.5150,-94.5133,0.0,2.4,115.0,2.7,'11111222,11111222,11111222' 
TCOON,ioos:station:TCOON:518:1,2019-03-01T16:00:00Z,29.5150,-94.5133,0.0,2.4,76.0,2.8,'11111222,11111222,11111222' 
TCOON,ioos:station:TCOON:518:1,2019-03-01T16:06:00Z,29.5150,-94.5133,0.0,2.5,57.0,2.9,'11111222,11111222,11111222' 
TCOON,ioos:station:TCOON:518:1,2019-03-01T16:12:00Z,29.5150,-94.5133,0.0,2.6,48.0,3.4,'11111222,11111222,11111222' 
TCOON,ioos:station:TCOON:518:1,2019-03-01T16:18:00Z,29.5150,-94.5133,0.0,2.6,33.0,3.2,'11111222,11111222,11111222' 
TCOON,ioos:station:TCOON:518:1,2019-03-01T16:24:00Z,29.5150,-94.5133,0.0,2.6,33.0,3.2,'1111122,1111122,1111122' 
TCOON,ioos:station:TCOON:518:1,2019-03-01T16:30:00Z,29.5150,-94.5133,0.0,2.8,44.0,3.4,'11111222,11111222,11111222' 
TCOON,ioos:station:TCOON:518:1,2019-03-01T16:36:00Z,29.5150,-94.5133,0.0,3.1,42.0,3.5,'11111222,11111222,11111222' 
TCOON,ioos:station:TCOON:518:1,2019-03-01T16:42:00Z,29.5150,-94.5133,0.0,3.4,33.0,3.8,'11111222,11111222,11111222' 
TCOON,ioos:station:TCOON:518:1,2019-03-01T16:48:00Z,29.5150,-94.5133,0.0,3.3,27.0,4.2,'11111222,11111222,11111222' 
TCOON,ioos:station:TCOON:518:1,2019-03-01T16:54:00Z,29.5150,-94.5133,0.0,3.1,27.0,3.9,'11111222,11111222,11111222' 
TCOON,ioos:station:TCOON:518:1,2019-03-01T17:00:00Z,29.5150,-94.5133,0.0,3.0,31.0,3.6,'11111222,11111222,11111222' 
TCOON,ioos:station:TCOON:518:1,2019-03-01T17:06:00Z,29.5150,-94.5133,0.0,4.0,18.0,4.5,'11111222,11111222,11111222' 
TCOON,ioos:station:TCOON:518:1,2019-03-01T17:12:00Z,29.5150,-94.5133,0.0,3.1,14.0,4.3,'11111222,11111222,11111222' 
TCOON,ioos:station:TCOON:518:1,2019-03-01T17:18:00Z,29.5150,-94.5133,0.0,3.0,14.0,3.9,'11111222,11111222,11111222' 
TCOON,ioos:station:TCOON:518:1,2019-03-01T17:24:00Z,29.5150,-94.5133,0.0,3.0,14.0,3.9,'1111122,1111122,1111122' 
TCOON,ioos:station:TCOON:518:1,2019-03-01T17:30:00Z,29.5150,-94.5133,0.0,3.2,46.0,3.9,'11111222,11111222,11111222' 
TCOON,ioos:station:TCOON:518:1,2019-03-01T17:36:00Z,29.5150,-94.5133,0.0,3.1,57.0,3.4,'11111222,11111222,11111222' 
TCOON,ioos:station:TCOON:518:1,2019-03-01T17:42:00Z,29.5150,-94.5133,0.0,3.2,29.0,3.8,'11111222,11111222,11111222' 
TCOON,ioos:station:TCOON:518:1,2019-03-01T17:48:00Z,29.5150,-94.5133,0.0,3.0,32.0,4.3,'11111222,11111222,11111222' 
TCOON,ioos:station:TCOON:518:1,2019-03-01T17:54:00Z,29.5150,-94.5133,0.0,3.6,27.0,4.1,'11111222,11111222,11111222' 
TCOON,ioos:station:TCOON:518:1,2019-03-01T18:00:00Z,29.5150,-94.5133,0.0,3.9,37.0,4.4,'11111222,11111222,11111222' 
TCOON,ioos:station:TCOON:518:1,2019-03-01T18:06:00Z,29.5150,-94.5133,0.0,4.1,39.0,4.6,'11111222,11111222,11111222' 
TCOON,ioos:station:TCOON:518:1,2019-03-01T18:12:00Z,29.5150,-94.5133,0.0,3.9,43.0,4.5,'11111222,11111222,11111222' 
TCOON,ioos:station:TCOON:518:1,2019-03-01T18:18:00Z,29.5150,-94.5133,0.0,3.9,46.0,4.8,'11111222,11111222,11111222' 
TCOON,ioos:station:TCOON:518:1,2019-03-01T18:24:00Z,29.5150,-94.5133,0.0,3.9,46.0,4.8,'1111122,1111122,1111122' 
TCOON,ioos:station:TCOON:518:1,2019-03-01T18:30:00Z,29.5150,-94.5133,0.0,3.9,46.0,4.5,'11111222,11111222,11111222' 
TCOON,ioos:station:TCOON:518:1,2019-03-01T18:36:00Z,29.5150,-94.5133,0.0,3.9,50.0,4.4,'11111222,11111222,11111222' 
TCOON,ioos:station:TCOON:518:1,2019-03-01T18:42:00Z,29.5150,-94.5133,0.0,3.2,46.0,3.6,'11111222,11111222,11111222' 
TCOON,ioos:station:TCOON:518:1,2019-03-01T18:48:00Z,29.5150,-94.5133,0.0,4.1,34.0,4.5,'11111222,11111222,11111222' 
TCOON,ioos:station:TCOON:518:1,2019-03-01T18:54:00Z,29.5150,-94.5133,0.0,4.0,41.0,4.5,'11111222,11111222,11111222' 
TCOON,ioos:station:TCOON:518:1,2019-03-01T19:00:00Z,29.5150,-94.5133,0.0,2.6,34.0,3.8,'11111222,11111222,11111222' 
TCOON,ioos:station:TCOON:518:1,2019-03-01T19:06:00Z,29.5150,-94.5133,0.0,2.5,46.0,3.1,'11111222,11111222,11111222' 
TCOON,ioos:station:TCOON:518:1,2019-03-01T19:12:00Z,29.5150,-94.5133,0.0,2.0,42.0,2.4,'11111222,11111222,11111222' 
TCOON,ioos:station:TCOON:518:1,2019-03-01T19:18:00Z,29.5150,-94.5133,0.0,1.9,32.0,2.7,'11111222,11111222,11111222' 
TCOON,ioos:station:TCOON:518:1,2019-03-01T19:24:00Z,29.5150,-94.5133,0.0,1.6,35.0,2.5,'11111222,11111222,11111222' 
TCOON,ioos:station:TCOON:518:1,2019-03-01T19:30:00Z,29.5150,-94.5133,0.0,1.6,35.0,2.5,'1111122,1111122,1111122' 
TCOON,ioos:station:TCOON:518:1,2019-03-01T19:36:00Z,29.5150,-94.5133,0.0,1.2,62.0,2.2,'11111222,11111222,11111222' 
TCOON,ioos:station:TCOON:518:1,2019-03-01T19:42:00Z,29.5150,-94.5133,0.0,1.2,87.0,2.7,'11111222,11111222,11111222' 
TCOON,ioos:station:TCOON:518:1,2019-03-01T19:48:00Z,29.5150,-94.5133,0.0,3.0,140.0,3.6,'11111222,11111222,11111222' 
TCOON,ioos:station:TCOON:518:1,2019-03-01T19:54:00Z,29.5150,-94.5133,0.0,2.8,122.0,3.4,'11111222,11111222,11111222' 
TCOON,ioos:station:TCOON:518:1,2019-03-01T20:00:00Z,29.5150,-94.5133,0.0,2.4,119.0,3.2,'11111222,11111222,11111222' 
TCOON,ioos:station:TCOON:518:1,2019-03-01T20:06:00Z,29.5150,-94.5133,0.0,2.3,120.0,2.8,'11111222,11111222,11111222' 
TCOON,ioos:station:TCOON:518:1,2019-03-01T20:12:00Z,29.5150,-94.5133,0.0,3.0,122.0,3.3,'11111222,11111222,11111222' 
TCOON,ioos:station:TCOON:518:1,2019-03-01T20:18:00Z,29.5150,-94.5133,0.0,4.6,149.0,5.3,'11111222,11111222,11111222' 
TCOON,ioos:station:TCOON:518:1,2019-03-01T20:24:00Z,29.5150,-94.5133,0.0,4.6,149.0,5.3,'1111122,1111122,1111122' 
TCOON,ioos:station:TCOON:518:1,2019-03-01T20:30:00Z,29.5150,-94.5133,0.0,3.3,133.0,3.6,'11111222,11111222,11111222' 